{"data":{"norad_id":67537,"intl_designator":"2026-014F","name":"STARLINK-36561","alt_names":[],"object_type":"PAYLOAD","status":"ACTIVE","operator":null,"country":"US","launch_date":"2026-01-22","launch_site_code":"AFWTR","launch_vehicle":null,"mission":null,"orbit_class":"UNKNOWN","rcs_meters":null,"size_class":null,"mass_kg":null,"dimensions":null,"purposes":["comms"],"wikipedia_slug":null,"has_3d_model":false,"image_url":null,"decayed_at":null,"tle_current":{"epoch":"2026-05-25T02:28:31.296000Z","epoch_age_seconds":60173,"freshness":"FRESH","line1":"1 67537U 26014F   26145.10314000  .00019744  00000+0  61201-3 0  9995","line2":"2 67537  97.2864  32.1436 0001646  72.0199 288.1223 15.33459763 20497","mean_motion":15.33459763,"eccentricity":0.0001646,"inclination_deg":97.2864,"raan_deg":32.1436,"arg_perigee_deg":72.0199,"mean_anomaly_deg":288.1223,"bstar":0.00061201,"rev_number":2049,"period_min":93.905300598357,"perigee_km":464.37278800234,"apogee_km":466.62571305601,"semimajor_km":6843.6362505292,"source":"CELESTRAK","updated_at":"2026-05-25T13:38:21.607552Z"}}}